Location: Clanezzo
(45.7500°N, 9.6000°E)
Time: 16:42:43
(UTC+00:00)

Gbstr 26 Del rocket - Visible Passes

Search period start: 26 September 2021 00:00
Search period end: 06 October 2021 00:00
Orbit: 492 x 1263 km, 51.8° (Epoch: 26 September)

Date Brightness Start Highest point End Pass type
(mag) Time Alt. Az. Time Alt. Az. Time Alt. Az.
26 Sep 5.8 01:08:16 25° ESE 01:08:16 25° ESE 01:10:56 10° ESE visible
26 Sep 4.5 02:50:55 47° SW 02:50:55 47° SW 02:57:23 10° SSE visible
26 Sep 5.8 04:34:16 10° W 04:36:26 11° WSW 04:38:32 10° SW visible
26 Sep 5.6 17:43:31 10° SSE 17:48:05 18° ESE 17:52:57 10° E visible
26 Sep 4.4 19:26:56 10° SW 19:34:11 60° SE 19:36:32 44° E visible
26 Sep 5.2 21:14:01 10° WSW 21:19:07 44° W 21:19:07 44° W visible
27 Sep 6.5 01:05:35 12° ESE 01:05:35 12° ESE 01:06:02 10° ESE visible
27 Sep 5.1 02:48:16 31° S 02:48:16 31° S 02:52:08 10° SSE visible
27 Sep 5.5 17:37:41 10° S 17:42:50 22° ESE 17:48:26 10° ENE visible
27 Sep 4.3 19:21:50 10° SW 19:29:08 68° SE 19:32:34 37° ENE visible
27 Sep 5.0 21:09:10 10° W 21:15:08 52° WNW 21:15:08 52° WNW visible
27 Sep 6.8 22:57:28 10° WNW 22:57:42 11° WNW 22:57:42 11° WNW visible
28 Sep 6.0 02:45:40 15° S 02:45:40 15° S 02:46:48 10° SSE visible
28 Sep 5.3 17:32:02 10° S 17:37:37 26° SE 17:43:47 10° ENE visible
28 Sep 4.3 19:16:47 10° SW 19:24:07 76° SE 19:28:19 32° ENE visible
28 Sep 5.0 21:04:19 10° W 21:10:52 56° NW 21:10:52 56° NW visible
28 Sep 6.7 22:52:35 10° WNW 22:53:24 13° WNW 22:53:24 13° WNW visible
29 Sep 5.2 17:26:31 10° S 17:32:26 30° SE 17:39:02 10° ENE visible
29 Sep 4.3 19:11:46 10° SW 19:19:07 84° SSE 19:23:50 28° ENE visible
29 Sep 4.9 20:59:29 10° W 21:06:22 57° NW 21:06:22 57° NW visible
29 Sep 6.6 22:47:42 10° WNW 22:48:55 15° WNW 22:48:55 15° WNW visible
30 Sep 5.0 17:21:06 10° SSW 17:27:15 36° SE 17:34:14 10° ENE visible
30 Sep 4.4 19:06:48 10° WSW 19:14:09 88° NNW 19:19:13 26° ENE visible
30 Sep 4.9 20:54:40 10° W 21:01:44 56° NNW 21:01:44 56° NNW visible
30 Sep 6.5 22:42:47 10° WNW 22:44:16 17° WNW 22:44:16 17° WNW visible
01 Oct 4.5 19:01:53 10° WSW 19:09:12 81° NNW 19:14:28 24° ENE visible
01 Oct 5.0 20:49:49 10° W 20:56:59 56° NNW 20:56:59 56° NNW visible
01 Oct 6.5 22:37:52 10° WNW 22:39:30 17° WNW 22:39:30 17° WNW visible
02 Oct 4.5 18:56:59 10° WSW 19:04:16 75° NNW 19:09:39 24° ENE visible
02 Oct 4.9 20:45:00 10° WNW 20:52:10 55° NNW 20:52:10 55° NNW visible
02 Oct 6.5 22:32:56 10° WNW 22:34:41 18° WNW 22:34:41 18° WNW visible
03 Oct 4.6 18:52:06 10° WSW 18:59:22 70° NNW 19:04:47 23° ENE visible
03 Oct 4.9 20:40:08 10° WNW 20:47:17 55° N 20:47:17 55° N visible
03 Oct 6.5 22:27:59 10° WNW 22:29:48 19° WNW 22:29:48 19° WNW visible
04 Oct 4.7 18:47:14 10° W 18:54:28 65° NNW 18:59:52 23° ENE visible
04 Oct 4.9 20:35:16 10° WNW 20:42:22 56° N 20:42:22 56° N visible
04 Oct 6.4 22:23:02 10° WNW 22:24:53 19° WNW 22:24:53 19° WNW visible
05 Oct 4.8 18:42:24 10° W 18:49:35 62° NNW 18:54:56 23° ENE visible
05 Oct 4.9 20:30:24 10° WNW 20:37:26 57° N 20:37:26 57° N visible
05 Oct 6.4 22:18:05 10° WNW 22:19:56 19° WNW 22:19:56 19° WNW visible
